COSMOS 1275 DEB, 42143

Orbit data source: Space-Track

COSMOS 1275 DEB, 42143 is space debris in LEO originally from a launch on Thu, 04 Jun 1981 UTC launched from the Plesetsk Missile And Space Complex (PKMTR). Debris objects in space refer to the collection of defunct objects orbiting the Earth. Examples of debris include non-operational satellites, rocket bodies, and fragments generated from explosions, collisions, or faulty payload assembly.

Loading next visibility...
Identifier
42143, 1981-053RF
Orbit
LEO
Country
Flag of CISCIS
Related business
Manufacturer
Unknown
Mission
Spacecraft
Bus & Motor
Unknown
Mass
Unknown
Launch date (UTC)
1981-06-04 (45 years ago)
Launch vehicle
Unknown
Launch site
Plesetsk Missile And Space Complex (PKMTR)
Object type
Payload
Rocket body
Debris
Shape & HBR
Unknown shape, 0.1 m
Radar Cross Section
Small (<0.1 m²)

Expand to show TLE details & history
Last TLE update: 3 weeks ago

TLE from 3 weeks ago
0 COSMOS 1275 DEB
1 42143U 81053RF  26018.52008806  .00001380  00000-0  12506-2 0  9995
2 42143  83.0159 299.8920 0097545  77.6567 283.5491 13.80794762610230
Epoch: 2026-01-18T12:28Z
TLE epoch observation values (Epoch: 2026-01-18T12:28:55.608Z)
Latitude
-0.00002°
Longitude
-5.26919°
Altitude
947.866 km
Speed
7.386 km/s
True Right ascension
19h 59m 34s
True Declination
0° 00' 00"
Sunlit
Object was in daylight at epoch
Visualization orbit readout
Latitude
Unknown
Longitude
Unknown
Altitude
Unknown
Speed
Unknown
Apparent Right ascension
Unknown
Apparent Declination
Unknown
Sunlit
N/A
Visualization observer readout
Local Sidereal Time
18:04:23
Azimuth
Unknown
Elevation
Unknown
Doppler factor
Unknown
Orbital elements
Apogee altitude
1,029.769 km
Perigee altitude
886.644 km
Semi-major axis
7,336.344 km
Eccentricity
0.00975
Inclination
83.0159°
RAAN
299.892°
Arg. of periapsis
77.6567°
True anomaly
282.45938°
Mean anomaly
283.5491°
Eccentric anomaly
283.00454°
Mean motion
3.45401 °/min
Orbital period
104.23 mins
BSTAR
0.0012506
Loading maneuver chart data...
Computing Atmospheric mass density...
Loading historical data...
Loading historical data...
Loading historical data...
Loading historical data...
Loading historical data...
Loading historical data...
Loading historical data...

Documentation

Showing up to 5 results
|